map of SHG home
Great Circle Mapper logo
SHG - Airport
Location
City:  Shungnak, Alaska, United States
ICAO:PAGH
IATA:SHG
FAA LID:SHG

Details
Type:Airport (Airfield)
Use:Public/Civil
Latitude:6653'17"N (66.888083)
Longitude:15709'45"W (-157.162416)
Datum:WGS 1984
Elevation:205 ft (62 m)
Variation:14.57E (WMM2015 magnetic declination)
-0.42 annual change
Runways:1
Longest:4001 × 60 ft (1220 × 18.5 m)

Time
Time Zone:UTC-9 (DST-8)
Local Time:

Weather
METAR:PAGH 242157Z AUTO VRB03KT 10SM CLR 03/M02 A2977 RMK AO2 SLP110 T00331017

Related Locations
Nearby:
Farthest:NZSP: 10827 mi / 17424 km
Amundsen-Scott South Pole Station [Jack F. Paulus Skiway], AQ

Find:

   beyond  
but within

Other Information
Maps:
NOTAMs:
Links:
Sources:

  
flag of United States
flag of Alaska
  

Sectional Chart

Flight Planning
at skyvector.com

Satellite Image

Google Maps Satellite view

 

Copyright © 2004-2016 Karl L. Swartz. All rights reserved.
The Great Circle Mapper name and logo are trademarks of the Great Circle Mapper.
All other trademarks mentioned herein belong to their respective owners.
Please see credits for attibutions and further copyright information.

  Follow gcmap on Facebook Follow gcmap on Twitter Follow gcmap on Google+ GCmap on LinkedIn

hCard Microformat

Geo Microformat